Location: Stull Observatory
(42.2506°N, 77.7903°W)
Time: 14:07:26
(UTC-04:00)

Okean O Rocket - Visible Passes

Search period start: 31 March 2015 00:00
Search period end: 10 April 2015 00:00
Orbit: 624 x 646 km, 98.0° (Epoch: 30 March)

Date Brightness Start Highest point End Pass type
(mag) Time Alt. Az. Time Alt. Az. Time Alt. Az.
31 Mar 3.3 03:47:56 10° NNE 03:50:54 30° ENE 03:50:54 30° ENE visible
31 Mar 2.8 05:24:41 10° NNW 05:28:10 23° WNW 05:28:24 23° WNW visible
01 Apr 2.3 04:09:39 10° NNE 04:13:17 51° ENE 04:13:17 51° ENE visible
01 Apr 3.4 05:47:34 10° NNW 05:49:59 14° WNW 05:50:47 14° WNW visible
02 Apr 1.6 04:31:37 10° N 04:35:41 74° NNW 04:35:41 74° NNW visible
03 Apr 4.2 03:18:34 10° NE 03:20:34 16° E 03:20:34 16° E visible
03 Apr 1.9 04:53:45 10° N 04:57:56 46° WNW 04:58:04 46° WNW visible
04 Apr 3.4 03:39:44 10° NE 03:42:57 26° E 03:42:57 26° E visible
04 Apr 2.6 05:16:06 10° N 05:19:51 28° WNW 05:20:27 26° W visible
05 Apr 2.4 04:01:21 10° NNE 04:05:20 46° E 04:05:20 46° E visible
05 Apr 3.2 05:38:46 10° NNW 05:41:40 17° WNW 05:42:49 15° W visible
06 Apr 1.5 04:23:13 10° NNE 04:27:36 82° ESE 04:27:43 81° SE visible
06 Apr 3.7 06:02:32 10° NW 06:03:27 10° WNW 06:04:08 10° WNW visible
07 Apr 4.3 03:10:45 10° ENE 03:12:36 13° E 03:12:36 13° E visible
07 Apr 1.6 04:45:17 10° N 04:49:34 57° WNW 04:50:05 53° WSW visible
08 Apr 3.6 03:31:34 10° NE 03:34:56 22° E 03:34:58 22° E visible
08 Apr 2.4 05:07:32 10° N 05:11:28 33° WNW 05:12:28 30° W visible
09 Apr 2.7 03:53:03 10° NNE 03:57:06 37° E 03:57:20 37° ESE visible
09 Apr 3.0 05:30:03 10° NNW 05:33:19 21° WNW 05:34:50 17° W visible
